Time,TemperatureF,DewpointF,PressureIn,WindDirection,WindDirectionDegrees,WindSpeedMPH,WindSpeedGustMPH,Humidity,HourlyPrecipIn,Conditions,Clouds,dailyrainin,SoftwareType,DateUTC
2013-10-10 00:14:00,50.0,43.0,30.35,NNE,24,1.0,5.0,77,0.00,,,0.00,,2013-10-10 04:14:00,
2013-10-10 00:24:00,49.0,42.0,30.34,SE,134,1.0,4.0,78,0.00,,,0.00,,2013-10-10 04:24:00,
2013-10-10 00:50:00,49.0,42.0,30.34,NNE,28,0.0,5.0,78,0.00,,,0.00,,2013-10-10 04:50:00,
2013-10-10 01:12:00,49.0,43.0,30.34,NE,36,2.0,7.0,79,0.00,,,0.00,,2013-10-10 05:12:00,
2013-10-10 01:23:00,49.0,43.0,30.34,NNE,32,1.0,5.0,79,0.00,,,0.00,,2013-10-10 05:23:00,
2013-10-10 01:43:00,49.0,43.0,30.34,NE,46,1.0,7.0,80,0.00,,,0.00,,2013-10-10 05:43:00,
2013-10-10 01:53:00,49.0,43.0,30.33,ENE,63,1.0,5.0,80,0.00,,,0.00,,2013-10-10 05:53:00,
2013-10-10 02:13:00,49.0,43.0,30.33,East,89,0.0,4.0,80,0.00,,,0.00,,2013-10-10 06:13:00,
2013-10-10 02:22:00,48.0,42.0,30.33,NNW,333,1.0,7.0,80,0.00,,,0.00,,2013-10-10 06:22:00,
2013-10-10 02:42:00,48.0,42.0,30.32,North,355,2.0,5.0,81,0.00,,,0.00,,2013-10-10 06:42:00,
2013-10-10 02:53:00,48.0,42.0,30.32,North,5,0.0,4.0,81,0.00,,,0.00,,2013-10-10 06:53:00,
2013-10-10 03:11:00,48.0,43.0,30.31,WNW,298,1.0,8.0,82,0.00,,,0.00,,2013-10-10 07:11:00,
2013-10-10 03:21:00,48.0,43.0,30.30,WNW,286,0.0,3.0,82,0.00,,,0.00,,2013-10-10 07:21:00,
2013-10-10 03:42:00,48.0,43.0,30.30,NNE,28,1.0,7.0,83,0.00,,,0.00,,2013-10-10 07:42:00,
2013-10-10 03:52:00,48.0,43.0,30.30,WSW,254,0.0,5.0,83,0.00,,,0.00,,2013-10-10 07:52:00,
2013-10-10 04:11:00,48.0,43.0,30.30,NW,326,1.0,5.0,83,0.00,,,0.00,,2013-10-10 08:11:00,
2013-10-10 04:22:00,48.0,43.0,30.30,NW,326,1.0,5.0,83,0.00,,,0.00,,2013-10-10 08:22:00,
2013-10-10 04:32:00,48.0,43.0,30.30,NW,326,1.0,5.0,83,0.00,,,0.00,,2013-10-10 08:32:00,
2013-10-10 04:52:00,48.0,43.0,30.30,NNW,345,0.0,4.0,83,0.00,,,0.00,,2013-10-10 08:52:00,
2013-10-10 05:12:00,48.0,43.0,30.31,North,5,1.0,5.0,83,0.00,,,0.00,,2013-10-10 09:12:00,
2013-10-10 05:22:00,48.0,43.0,30.32,NNW,329,1.0,6.0,84,0.00,,,0.00,,2013-10-10 09:22:00,
2013-10-10 05:43:00,48.0,43.0,30.31,North,355,1.0,4.0,84,0.00,,,0.00,,2013-10-10 09:43:00,
2013-10-10 05:53:00,48.0,43.0,30.31,NNE,22,0.0,6.0,84,0.00,,,0.00,,2013-10-10 09:53:00,
2013-10-10 06:12:00,48.0,43.0,30.31,NNE,15,0.0,6.0,83,0.00,,,0.00,,2013-10-10 10:12:00,
2013-10-10 06:23:00,48.0,43.0,30.31,NW,306,0.0,4.0,83,0.00,,,0.00,,2013-10-10 10:23:00,
2013-10-10 06:42:00,48.0,43.0,30.30,WNW,291,1.0,7.0,84,0.00,,,0.00,,2013-10-10 10:42:00,
2013-10-10 06:53:00,48.0,43.0,30.30,NW,309,1.0,6.0,84,0.00,,,0.00,,2013-10-10 10:53:00,
2013-10-10 07:12:00,48.0,43.0,30.30,NW,321,1.0,9.0,84,0.00,,,0.00,,2013-10-10 11:12:00,
2013-10-10 07:22:00,48.0,43.0,30.30,WNW,292,1.0,9.0,84,0.00,,,0.00,,2013-10-10 11:22:00,
2013-10-10 07:42:00,48.0,43.0,30.30,ENE,78,0.0,5.0,83,0.00,,,0.00,,2013-10-10 11:42:00,
2013-10-10 07:57:00,48.0,43.0,30.30,WNW,303,1.0,7.0,84,0.00,,,0.00,,2013-10-10 11:57:00,
2013-10-10 08:12:00,48.0,43.0,30.30,NNW,333,1.0,3.0,83,0.00,,,0.00,,2013-10-10 12:12:00,
2013-10-10 08:21:00,49.0,44.0,30.30,NNW,327,1.0,5.0,83,0.00,,,0.00,,2013-10-10 12:21:00,
2013-10-10 08:42:00,49.0,44.0,30.29,NE,36,1.0,7.0,83,0.00,,,0.00,,2013-10-10 12:42:00,
2013-10-10 08:52:00,49.0,44.0,30.30,WNW,300,1.0,8.0,83,0.00,,,0.00,,2013-10-10 12:52:00,
2013-10-10 09:12:00,50.0,45.0,30.30,East,100,1.0,6.0,82,0.00,,,0.00,,2013-10-10 13:12:00,
2013-10-10 09:21:00,50.0,44.0,30.30,North,5,2.0,5.0,81,0.00,,,0.00,,2013-10-10 13:21:00,
2013-10-10 09:42:00,51.0,45.0,30.30,NNW,346,1.0,5.0,80,0.00,,,0.00,,2013-10-10 13:42:00,
2013-10-10 09:52:00,51.0,45.0,30.30,ESE,104,0.0,4.0,80,0.00,,,0.00,,2013-10-10 13:52:00,
2013-10-10 10:11:00,52.0,46.0,30.30,West,263,0.0,7.0,79,0.00,,,0.00,,2013-10-10 14:11:00,
2013-10-10 10:21:00,52.0,46.0,30.29,NNW,327,1.0,5.0,79,0.00,,,0.00,,2013-10-10 14:21:00,
2013-10-10 10:42:00,53.0,46.0,30.29,NNE,15,1.0,6.0,78,0.00,,,0.00,,2013-10-10 14:42:00,
2013-10-10 10:52:00,53.0,46.0,30.28,NE,46,2.0,7.0,78,0.00,,,0.00,,2013-10-10 14:52:00,
2013-10-10 11:11:00,53.0,46.0,30.28,NNE,28,1.0,6.0,78,0.00,,,0.00,,2013-10-10 15:11:00,
2013-10-10 11:22:00,53.0,47.0,30.27,ENE,68,1.0,8.0,79,0.00,,,0.00,,2013-10-10 15:22:00,
2013-10-10 11:43:00,53.0,47.0,30.27,WNW,300,0.0,5.0,80,0.00,,,0.00,,2013-10-10 15:43:00,
2013-10-10 11:54:00,54.0,48.0,30.27,North,9,0.0,4.0,80,0.00,,,0.00,,2013-10-10 15:54:00,
2013-10-10 12:13:00,54.0,48.0,30.27,NNW,344,1.0,5.0,80,0.00,,,0.00,,2013-10-10 16:13:00,
2013-10-10 12:23:00,55.0,49.0,30.26,NNW,329,1.0,8.0,80,0.00,,,0.00,,2013-10-10 16:23:00,
2013-10-10 12:42:00,55.0,49.0,30.25,ESE,118,3.0,9.0,81,0.00,,,0.00,,2013-10-10 16:42:00,
2013-10-10 12:53:00,55.0,49.0,30.24,NE,40,1.0,8.0,80,0.00,,,0.00,,2013-10-10 16:53:00,
2013-10-10 13:12:00,56.0,50.0,30.24,NNE,19,1.0,5.0,79,0.00,,,0.00,,2013-10-10 17:12:00,
2013-10-10 13:23:00,56.0,49.0,30.25,NE,46,1.0,4.0,78,0.00,,,0.00,,2013-10-10 17:23:00,
2013-10-10 13:42:00,56.0,49.0,30.24,North,9,0.0,7.0,78,0.00,,,0.00,,2013-10-10 17:42:00,
2013-10-10 13:53:00,57.0,51.0,30.24,ENE,63,2.0,5.0,79,0.00,,,0.00,,2013-10-10 17:53:00,
2013-10-10 14:12:00,58.0,51.0,30.24,WNW,298,0.0,3.0,78,0.00,,,0.00,,2013-10-10 18:12:00,
2013-10-10 14:21:00,58.0,51.0,30.23,NNW,342,0.0,4.0,77,0.00,,,0.00,,2013-10-10 18:21:00,
2013-10-10 14:42:00,59.0,51.0,30.23,NE,46,1.0,5.0,75,0.00,,,0.00,,2013-10-10 18:42:00,
2013-10-10 14:52:00,60.0,52.0,30.23,East,84,1.0,5.0,75,0.00,,,0.00,,2013-10-10 18:52:00,
2013-10-10 15:11:00,60.0,52.0,30.22,ENE,65,0.0,4.0,74,0.00,,,0.00,,2013-10-10 19:11:00,
2013-10-10 15:22:00,60.0,52.0,30.22,NW,315,0.0,5.0,75,0.00,,,0.00,,2013-10-10 19:22:00,
2013-10-10 15:42:00,60.0,52.0,30.22,NW,309,0.0,1.0,76,0.00,,,0.00,,2013-10-10 19:42:00,
2013-10-10 15:53:00,60.0,52.0,30.21,NNW,342,0.0,3.0,75,0.00,,,0.00,,2013-10-10 19:53:00,
2013-10-10 16:12:00,60.0,52.0,30.21,NNE,29,0.0,3.0,76,0.00,,,0.00,,2013-10-10 20:12:00,
2013-10-10 16:22:00,59.0,51.0,30.20,ENE,71,1.0,5.0,76,0.00,,,0.00,,2013-10-10 20:22:00,
2013-10-10 16:42:00,59.0,51.0,30.20,NNE,19,1.0,4.0,76,0.00,,,0.00,,2013-10-10 20:42:00,
2013-10-10 16:52:00,59.0,51.0,30.19,SSE,167,0.0,3.0,76,0.00,,,0.00,,2013-10-10 20:52:00,
2013-10-10 17:12:00,59.0,52.0,30.19,NNW,335,0.0,3.0,77,0.00,,,0.00,,2013-10-10 21:12:00,
2013-10-10 17:22:00,59.0,52.0,30.19,NE,53,1.0,3.0,77,0.00,,,0.00,,2013-10-10 21:22:00,
2013-10-10 17:44:00,59.0,52.0,30.18,NNE,23,0.0,4.0,78,0.00,,,0.00,,2013-10-10 21:44:00,
2013-10-10 17:54:00,59.0,52.0,30.18,ENE,74,0.0,5.0,78,0.00,,,0.00,,2013-10-10 21:54:00,
2013-10-10 18:13:00,59.0,52.0,30.18,NNW,341,0.0,4.0,78,0.00,,,0.00,,2013-10-10 22:13:00,
2013-10-10 18:24:00,58.0,51.0,30.18,NW,317,0.0,3.0,78,0.00,,,0.00,,2013-10-10 22:24:00,
2013-10-10 18:43:00,58.0,51.0,30.18,SW,234,0.0,4.0,78,0.00,,,0.00,,2013-10-10 22:43:00,
2013-10-10 18:53:00,58.0,52.0,30.19,ESE,103,0.0,5.0,79,0.00,,,0.00,,2013-10-10 22:53:00,
2013-10-10 19:12:00,57.0,50.0,30.19,NE,51,1.0,4.0,78,0.00,,,0.00,,2013-10-10 23:12:00,
2013-10-10 19:23:00,57.0,50.0,30.19,ENE,68,1.0,5.0,78,0.00,,,0.00,,2013-10-10 23:23:00,
2013-10-10 19:43:00,57.0,50.0,30.19,NE,56,0.0,3.0,78,0.00,,,0.00,,2013-10-10 23:43:00,
2013-10-10 19:53:00,57.0,50.0,30.19,NW,325,1.0,5.0,77,0.00,,,0.00,,2013-10-10 23:53:00,
2013-10-10 20:11:00,56.0,49.0,30.19,NNW,327,0.0,5.0,77,0.00,,,0.00,,2013-10-11 00:11:00,
2013-10-10 20:22:00,56.0,49.0,30.19,NW,311,0.0,8.0,77,0.00,,,0.00,,2013-10-11 00:22:00,
2013-10-10 20:42:00,56.0,49.0,30.18,NNW,327,1.0,4.0,78,0.00,,,0.00,,2013-10-11 00:42:00,
2013-10-10 20:52:00,56.0,49.0,30.18,East,90,1.0,6.0,78,0.00,,,0.00,,2013-10-11 00:52:00,
2013-10-10 21:12:00,55.0,48.0,30.18,SSE,147,1.0,6.0,78,0.00,,,0.00,,2013-10-11 01:12:00,
2013-10-10 21:22:00,55.0,48.0,30.18,NE,56,1.0,5.0,78,0.00,,,0.00,,2013-10-11 01:22:00,
2013-10-10 21:42:00,55.0,49.0,30.18,East,101,0.0,5.0,79,0.00,,,0.00,,2013-10-11 01:42:00,
2013-10-10 21:52:00,55.0,49.0,30.18,WNW,290,1.0,3.0,79,0.00,,,0.00,,2013-10-11 01:52:00,
2013-10-10 22:12:00,55.0,49.0,30.18,North,5,1.0,6.0,79,0.00,,,0.00,,2013-10-11 02:12:00,
2013-10-10 22:22:00,55.0,49.0,30.18,ENE,69,1.0,2.0,79,0.00,,,0.00,,2013-10-11 02:22:00,
2013-10-10 22:42:00,55.0,49.0,30.18,East,80,0.0,4.0,80,0.00,,,0.00,,2013-10-11 02:42:00,
2013-10-10 22:52:00,55.0,49.0,30.18,NE,36,1.0,9.0,79,0.00,,,0.00,,2013-10-11 02:52:00,
2013-10-10 23:11:00,55.0,49.0,30.18,ESE,107,0.0,8.0,79,0.00,,,0.00,,2013-10-11 03:11:00,
2013-10-10 23:23:00,55.0,49.0,30.18,ESE,107,0.0,8.0,79,0.00,,,0.00,,2013-10-11 03:23:00,
2013-10-10 23:44:00,55.0,49.0,30.17,ENE,72,2.0,6.0,80,0.00,,,0.00,,2013-10-11 03:44:00,
2013-10-10 23:54:00,55.0,49.0,30.16,NE,51,1.0,6.0,80,0.00,,,0.00,,2013-10-11 03:54:00,